Location: Katowice
(50.2611°N, 19.0242°E)
Time: 23:51:59
(UTC+02:00)

A-11 Canister half - Pass Details

Date: 28 July 2019
Orbit: 1526 x 1683 km, 47.3° (Epoch: 23 August)

Event Time Altitude Azimuth Distance (km) Brightness Sun altitude
Rises 19:36:02 0° 228° (SW) 4,926 12.1 7.5°
Reaches altitude 10° 19:39:19 10° 224° (SW) 3,935 11.5 7.0°
Maximum altitude 19:48:58 53° 152° (SSE) 1,979 9.4 5.5°
Drops below altitude 10° 19:58:25 10° 79° (E) 3,861 10.6 4.2°
Sets 20:01:35 0° 75° (ENE) 4,827 11.1 3.7°
